This demonstration page uses our WeatherBlox Daily Observations layout. Learn more.

Left ArrowRight Arrow

41.86663, -103.66717

Hourly Observations for March 10, 2016

Temp ( °F °C ) Dew Point ( °F °C ) Humidity (%) Winds ( mph kmh ) Pressure ( in mb ) Visibility ( mi km ) Precip ( " mm )
12:53 am 00:53 Clear 33 0.6 31 -0.6 92 92 NW 6 9 30.10 1019 10 16 N/A
1:53 am 01:53 Clear 32 undefined 30 -1.1 92 92 NW 7 11 30.11 1020 10 16 N/A
2:35 am 02:35 Mostly Clear with Mist and Fog 31 -0.6 29 -1.7 92 92 NNW 10 17 30.27 1025 3 4 N/A
2:38 am 02:38 Mostly Cloudy with Mist and Fog 30 -1 30 -1 100 100 NW 8 13 30.27 1025 1 2 N/A
2:43 am 02:43 Mostly Cloudy with Freezing Fog 31 -0.6 30 -1.1 96 96 NNW 8 13 30.27 1025 0 0 N/A
2:53 am 02:53 Mostly Cloudy with Freezing Fog 31 -0.6 30 -1.1 96 96 NW 8 13 30.11 1020 0 0 N/A
3:53 am 03:53 Mostly Cloudy with Freezing Fog 30 -1.1 29 -1.7 96 96 WNW 5 7 30.13 1020 0 0 N/A
4:25 am 04:25 Mostly Cloudy with Freezing Fog 28 -2.2 26 -3.3 92 92 NNE 5 7 30.27 1025 1 1 N/A
4:39 am 04:39 Mostly Cloudy with Mist and Fog 27 -2.8 25 -3.9 92 92 NNW 3 6 30.30 1026 2 3 N/A
4:53 am 04:53 Mostly Cloudy with Mist and Fog 27 -2.8 25 -3.9 92 92 N 3 6 30.16 1021 1 1 N/A
5:15 am 05:15 Mostly Cloudy with Mist and Fog 27 -2.8 25 -3.9 92 92 N N/A 30.30 1026 1 2 N/A
5:38 am 05:38 Mostly Cloudy with Freezing Fog 27 -3 25 -4 93 93 E 3 6 30.30 1026 0 0 N/A
5:53 am 05:53 Mostly Cloudy with Freezing Fog 27 -2.8 25 -3.9 92 92 N N/A 30.19 1022 1 1 N/A
6:07 am 06:07 Mostly Cloudy with Mist and Fog 26 -3.3 24 -4.4 92 92 ENE 3 6 30.30 1026 2 3 N/A
6:15 am 06:15 Partly Cloudy with Mist and Fog 25 -3.9 23 -5 92 92 E 3 6 30.30 1026 6 10 N/A
6:53 am 06:53 Sunny 28 -2.2 26 -3.3 92 92 N 5 7 30.20 1023 10 16 N/A
7:53 am 07:53 Sunny 33 0.6 30 -1.1 89 89 N N/A 30.20 1023 10 16 N/A
8:53 am 08:53 Sunny 42 5.6 41 5 96 96 N N/A 30.16 1021 10 16 N/A
9:53 am 09:53 Sunny 44 6.7 32 undefined 63 63 ESE 6 9 30.16 1021 10 16 N/A
10:53 am 10:53 Sunny 52 11.1 35 1.7 53 53 S 6 9 30.11 1020 10 16 N/A
11:53 am 11:53 Sunny 59 15 34 1.1 39 39 SSW 10 17 30.07 1018 10 16 N/A
12:53 pm 12:53 Sunny 62 16.7 29 -1.7 29 29 W 12 19 30.03 1017 10 16 N/A
1:53 pm 13:53 Sunny 64 17.8 29 -1.7 27 27 W 9 15 30.01 1016 10 16 N/A
2:53 pm 14:53 Sunny 66 18.9 29 -1.7 25 25 NW 8 13 29.99 1016 10 16 N/A
3:53 pm 15:53 Sunny 65 18.3 29 -1.7 26 26 N N/A 29.99 1016 10 16 N/A
4:53 pm 16:53 Sunny 64 17.8 32 undefined 30 30 N N/A 30.01 1016 10 16 N/A
5:53 pm 17:53 Sunny 57 13.9 34 1.1 42 42 SW 5 7 30.05 1018 10 16 N/A
6:53 pm 18:53 Clear 54 12.2 34 1.1 47 47 N N/A 30.07 1018 10 16 N/A
7:53 pm 19:53 Clear 49 9.4 33 0.6 55 55 NW 6 9 30.09 1019 10 16 N/A
8:53 pm 20:53 Clear 45 7.2 33 0.6 63 63 NNW 3 6 30.08 1019 10 16 N/A
9:53 pm 21:53 Clear 43 6.1 32 undefined 65 65 NNE 5 7 30.09 1019 10 16 N/A
10:53 pm 22:53 Clear 41 5 32 undefined 70 70 S 6 9 30.07 1018 10 16 N/A
11:53 pm 23:53 Clear 40 4.4 30 -1.1 68 68 E 9 15 30.06 1018 10 16 N/A

Powered by AerisWeather